Location: Arrodets-la-Barthe
(43.0306°N, 0.2829°E)
Time: 05:08:44
(UTC+00:00)

Cosmos 2278 - Pass Details

Date: 07 June 2022
Orbit: 838 x 854 km, 71.1° (Epoch: 03 July)

Event Time Altitude Azimuth Distance (km) Brightness Sun altitude
Rises 20:29:34 0° 252° (WSW) 3,395 7.3 -8.6°
Reaches altitude 10° 20:32:50 10° 271° (W) 2,467 6.9 -9.0°
Maximum altitude 20:36:37 18° 313° (NW) 1,970 7.0 -9.5°
Drops below altitude 10° 20:40:25 10° 355° (N) 2,483 6.9 -10.0°
Sets 20:43:44 0° 14° (NNE) 3,425 7.3 -10.5°
